BAW059 EGLL-FACT

Flight info

Callsign BAW059
Flight time N/A
Altitude 33000
Route MODMI M185 MID L612 HAWKE UL612 VEULE DCT DEKOD DCT DISAK DCT DIRMO DCT ETAMO DCT ADEKA DCT MOKDI DCT MEN DCT AMLIR DCT FJR DCT OBLAD/N0489F350 DCT KAMER UM998 CSO UA605 DJA UB730 DIR UA607 TUXOL/N0495F370 UA607 FL UA403 BZ DCT KSA UT943 ANTUX/N0489F390 UT943 IMVEX/N0490F380 UT943 UNLOK/N0487F390 UT943 VEDRY/N0485F400 UN185 OKLOK/N0445F240 Q23 DUMDO DCT ERDAS ERDAS1C
Aircraft A35K/H-SDE2E3GHIJ3J4J5LM1ORWXY/LB1D1

Departure

Time 2026-04-30 19:22
Airport London Heathrow Airport (EGLL)

Arrival

Time N/A
Airport Cape Town International Airport (FACT)
Time Latitude Longitude Altitude Speed Heading
2026-04-30 18:33 51.47181 -0.48240 95 ft 0 kts 89°
2026-04-30 18:34 51.47181 -0.48238 96 ft 0 kts 89°
2026-04-30 19:08 51.47181 -0.48249 92 ft 3 kts 89°
2026-04-30 19:08 51.47182 -0.48318 93 ft 3 kts 109°
2026-04-30 19:08 51.47193 -0.48347 95 ft 3 kts 151°
2026-04-30 19:09 51.47225 -0.48358 93 ft 3 kts 179°
2026-04-30 19:09 51.47201 -0.48358 96 ft 3 kts 179°
2026-04-30 19:09 51.47185 -0.48359 92 ft 0 kts 179°
2026-04-30 19:14 51.47174 -0.48358 93 ft 3 kts 180°
2026-04-30 19:14 51.47149 -0.48358 96 ft 4 kts 179°
2026-04-30 19:15 51.47114 -0.48358 95 ft 6 kts 179°
2026-04-30 19:15 51.47022 -0.48356 95 ft 8 kts 179°
2026-04-30 19:15 51.46964 -0.48356 94 ft 9 kts 179°
2026-04-30 19:16 51.46899 -0.48355 96 ft 10 kts 179°
2026-04-30 19:16 51.46827 -0.48354 94 ft 11 kts 179°
2026-04-30 19:16 51.46715 -0.48464 97 ft 9 kts 205°
2026-04-30 19:17 51.46652 -0.48468 92 ft 6 kts 180°
2026-04-30 19:17 51.46623 -0.48467 92 ft 0 kts 180°
2026-04-30 19:18 51.46621 -0.48467 95 ft 1 kts 180°
2026-04-30 19:19 51.46609 -0.48467 92 ft 0 kts 179°
2026-04-30 19:19 51.46600 -0.48467 92 ft 0 kts 179°
2026-04-30 19:20 51.46599 -0.48467 92 ft 1 kts 179°
2026-04-30 19:20 51.46531 -0.48466 92 ft 8 kts 179°
2026-04-30 19:21 51.46483 -0.48443 94 ft 6 kts 127°
2026-04-30 19:21 51.46480 -0.48135 97 ft 53 kts 90°
2026-04-30 19:22 51.46493 -0.45231 325 ft 182 kts 89°
2026-04-30 19:22 51.45295 -0.39154 2658 ft 232 kts 136°
2026-04-30 19:23 51.40678 -0.36415 4720 ft 244 kts 169°
2026-04-30 19:24 51.37293 -0.37530 5829 ft 258 kts 202°
2026-04-30 19:24 51.35676 -0.38818 6256 ft 260 kts 203°
2026-04-30 19:24 51.32408 -0.41421 7096 ft 264 kts 203°
2026-04-30 19:25 51.27389 -0.45378 8466 ft 273 kts 203°
2026-04-30 19:26 51.23927 -0.48098 9741 ft 280 kts 203°
2026-04-30 19:26 51.20343 -0.50876 10775 ft 300 kts 202°
2026-04-30 19:26 51.18417 -0.52362 11064 ft 315 kts 202°
2026-04-30 19:27 51.14261 -0.55564 11596 ft 348 kts 203°
2026-04-30 19:27 51.09737 -0.58983 12313 ft 367 kts 198°
2026-04-30 19:28 51.07271 -0.60010 12849 ft 367 kts 185°
2026-04-30 19:28 51.02261 -0.58981 13931 ft 368 kts 157°
2026-04-30 19:29 50.97781 -0.54964 15033 ft 373 kts 146°
2026-04-30 19:29 50.95650 -0.52579 15543 ft 377 kts 144°
2026-04-30 19:30 50.89233 -0.45319 17166 ft 385 kts 145°
2026-04-30 19:30 50.84774 -0.40512 18214 ft 391 kts 146°
2026-04-30 19:31 50.80225 -0.35709 19216 ft 396 kts 146°
2026-04-30 19:31 50.77923 -0.33285 19746 ft 397 kts 146°
2026-04-30 19:31 50.73289 -0.28403 20742 ft 402 kts 146°
2026-04-30 19:32 50.70947 -0.25948 21242 ft 405 kts 146°
2026-04-30 19:32 50.68595 -0.23475 21736 ft 407 kts 146°
2026-04-30 19:32 50.66230 -0.20995 22204 ft 411 kts 146°
2026-04-30 19:32 50.63873 -0.18527 22743 ft 412 kts 146°
2026-04-30 19:33 50.61477 -0.16019 23220 ft 415 kts 146°
2026-04-30 19:33 50.59070 -0.13501 23696 ft 417 kts 146°
2026-04-30 19:33 50.56644 -0.10966 24179 ft 419 kts 146°
2026-04-30 19:33 50.54206 -0.08425 24622 ft 422 kts 146°
2026-04-30 19:34 50.51744 -0.05860 25007 ft 426 kts 146°
2026-04-30 19:34 50.49260 -0.03273 25403 ft 430 kts 146°
2026-04-30 19:34 50.44234 0.01948 26166 ft 437 kts 146°
2026-04-30 19:35 50.41690 0.04582 26502 ft 441 kts 146°
2026-04-30 19:35 50.39118 0.07244 26883 ft 444 kts 145°
2026-04-30 19:35 50.36540 0.09913 27312 ft 445 kts 145°
2026-04-30 19:35 50.33949 0.12596 27709 ft 448 kts 146°
2026-04-30 19:36 50.31341 0.15286 28068 ft 450 kts 146°
2026-04-30 19:36 50.28716 0.17986 28440 ft 453 kts 146°
2026-04-30 19:36 50.24322 0.22496 29011 ft 456 kts 146°
2026-04-30 19:37 50.21661 0.25225 29335 ft 459 kts 146°
2026-04-30 19:37 50.18985 0.27972 29629 ft 462 kts 146°
2026-04-30 19:37 50.16297 0.30734 29934 ft 463 kts 146°
2026-04-30 19:37 50.13605 0.33499 30237 ft 464 kts 146°
2026-04-30 19:38 50.10910 0.36267 30668 ft 463 kts 146°
2026-04-30 19:38 50.08225 0.39020 31084 ft 462 kts 146°
2026-04-30 19:38 50.05542 0.41768 31385 ft 462 kts 146°
2026-04-30 19:38 50.02858 0.44511 31738 ft 461 kts 146°
2026-04-30 19:39 50.00176 0.47249 32087 ft 460 kts 146°
2026-04-30 19:39 49.97500 0.49977 32326 ft 461 kts 146°
2026-04-30 19:39 49.94817 0.52709 32580 ft 461 kts 146°
2026-04-30 19:39 49.92131 0.55440 32885 ft 461 kts 146°
2026-04-30 19:40 49.89454 0.58156 33112 ft 462 kts 146°
2026-04-30 19:40 49.86746 0.60902 33147 ft 467 kts 146°
2026-04-30 19:40 49.81290 0.66351 33148 ft 467 kts 147°
2026-04-30 19:41 49.75771 0.71691 33147 ft 468 kts 147°
2026-04-30 19:41 49.70249 0.77012 33145 ft 468 kts 147°
2026-04-30 19:42 49.64721 0.82345 33147 ft 468 kts 147°
2026-04-30 19:42 49.59195 0.87685 33152 ft 469 kts 147°
2026-04-30 19:43 49.53671 0.93010 33165 ft 469 kts 147°
2026-04-30 19:44 49.45371 1.00980 33172 ft 469 kts 147°
2026-04-30 19:44 49.39834 1.06286 33151 ft 468 kts 147°
2026-04-30 19:45 49.34288 1.11567 33153 ft 470 kts 147°
2026-04-30 19:45 49.28737 1.16844 33152 ft 470 kts 147°
2026-04-30 19:46 49.23174 1.22120 33153 ft 470 kts 147°
2026-04-30 19:46 49.17613 1.27381 33171 ft 470 kts 147°
2026-04-30 19:47 49.12043 1.32637 33151 ft 471 kts 147°
2026-04-30 19:47 49.06470 1.37887 33153 ft 470 kts 147°
2026-04-30 19:48 49.00898 1.43118 33153 ft 471 kts 147°
2026-04-30 19:48 48.95323 1.48340 33150 ft 471 kts 147°
2026-04-30 19:49 48.89739 1.53557 33171 ft 471 kts 147°
2026-04-30 19:49 48.81345 1.61365 33171 ft 472 kts 147°
2026-04-30 19:50 48.75744 1.66560 33151 ft 472 kts 147°
2026-04-30 19:50 48.70134 1.71752 33151 ft 472 kts 147°
2026-04-30 19:51 48.64562 1.76893 33151 ft 472 kts 147°
2026-04-30 19:51 48.58946 1.82053 33148 ft 472 kts 147°
2026-04-30 19:52 48.53327 1.87207 33145 ft 473 kts 147°
2026-04-30 19:52 48.47708 1.92359 33146 ft 473 kts 148°
2026-04-30 19:53 48.42075 1.97504 33146 ft 473 kts 147°
2026-04-30 19:53 48.36441 2.02634 33147 ft 474 kts 147°
2026-04-30 19:54 48.30761 2.07641 33138 ft 474 kts 152°
2026-04-30 19:54 48.24500 2.10770 33143 ft 477 kts 168°
2026-04-30 19:55 48.17929 2.12340 33138 ft 479 kts 170°
2026-04-30 19:55 48.11290 2.13325 33137 ft 480 kts 175°
2026-04-30 19:56 48.04617 2.13734 33128 ft 480 kts 176°
2026-04-30 19:56 47.97939 2.14091 33128 ft 480 kts 176°
2026-04-30 19:57 47.91261 2.14465 33127 ft 481 kts 176°
2026-04-30 19:57 47.84576 2.14848 33128 ft 480 kts 176°
2026-04-30 19:58 47.77902 2.15240 33128 ft 480 kts 175°
2026-04-30 19:58 47.71230 2.15640 33128 ft 480 kts 176°
2026-04-30 19:59 47.64554 2.16032 33128 ft 480 kts 176°
2026-04-30 20:00 47.54526 2.16613 33135 ft 481 kts 176°
2026-04-30 20:00 47.47888 2.16993 33138 ft 481 kts 176°
2026-04-30 20:01 47.37861 2.17565 33137 ft 481 kts 176°
2026-04-30 20:01 47.31169 2.17950 33137 ft 481 kts 176°
2026-04-30 20:02 47.21082 2.18529 33147 ft 482 kts 176°
2026-04-30 20:03 47.11093 2.19237 33148 ft 480 kts 171°
2026-04-30 20:03 47.04659 2.21690 33146 ft 478 kts 159°
2026-04-30 20:04 46.98460 2.25216 33147 ft 478 kts 157°
2026-04-30 20:05 46.89204 2.30709 33151 ft 479 kts 157°
2026-04-30 20:05 46.80317 2.37267 33171 ft 477 kts 147°
2026-04-30 20:06 46.74728 2.42536 33152 ft 479 kts 146°
2026-04-30 20:06 46.69166 2.47877 33152 ft 479 kts 146°
2026-04-30 20:07 46.63597 2.53196 33172 ft 479 kts 146°
2026-04-30 20:08 46.55209 2.61131 33166 ft 480 kts 146°
2026-04-30 20:08 46.49603 2.66419 33141 ft 480 kts 147°
2026-04-30 20:09 46.44002 2.71687 33137 ft 480 kts 147°
2026-04-30 20:09 46.35582 2.79586 33137 ft 481 kts 147°